Hourly Data Report for January 03, 2019

TORONTO CITY
ONTARIO
Current Station Operator: ECCC - MSC

43°40'00.000" N
79°24'00.000" W
112.50 m
6158355
71508
XTO

Download Data

Hourly Data (January 2019)
Hourly Data Report for January 3, 2019
TIME
LST
Temp Definition
°C
Dew Point Definition
°C
Rel Hum Definition
%
Precip. Amount Definition
mm

Wind Dir Definition
10's deg

Wind Spd Definition
km/h
Visibility Definition
km
Stn Press Definition
kPa
Hmdx Definition


Wind Chill Definition


Weather Definition


00:00 0.3 -0.7 93 0.8 LegendMM LegendMM   99.59     LegendNANA
01:00 0.6 -0.4 93 0.6 LegendMM LegendMM   99.61     LegendNANA
02:00 0.3 -0.6 93 0.0 LegendMM LegendMM   99.65     LegendNANA
03:00 -0.2 -2.0 88 0.0 LegendMM LegendMM   99.77     LegendNANA
04:00 -0.5 -2.8 85 0.0 LegendMM LegendMM   99.78     LegendNANA
05:00 0.3 -2.5 81 0.0 LegendMM LegendMM   99.83     LegendNANA
06:00 0.7 -3.5 74 0.0 LegendMM LegendMM   99.88     LegendNANA
07:00 0.6 -4.1 71 0.0 LegendMM LegendMM   99.98     LegendNANA
08:00 0.4 -5.1 67 0.0 LegendMM LegendMM   100.07     LegendNANA
09:00 0.3 -4.6 70 0.0 LegendMM LegendMM   100.16     LegendNANA
10:00 0.0 -5.8 65 0.0 LegendMM LegendMM   100.15     LegendNANA
11:00 0.2 -5.5 65 0.0 LegendMM LegendMM   100.11     LegendNANA
12:00 0.0 -5.4 67 0.0 LegendMM LegendMM   99.99     LegendNANA
13:00 0.2 -5.7 65 0.0 LegendMM LegendMM   100.01     LegendNANA
14:00 0.4 -5.0 67 0.0 LegendMM LegendMM   99.97     LegendNANA
15:00 0.7 -4.6 68 0.0 LegendMM LegendMM   99.94     LegendNANA
16:00 0.9 -4.6 66 0.0 LegendMM LegendMM   99.94     LegendNANA
17:00 1.0 -4.9 65 0.0 LegendMM LegendMM   99.94     LegendNANA
18:00 1.1 -4.7 65 0.0 LegendMM LegendMM   99.92     LegendNANA
19:00 1.2 -3.9 69 0.0 LegendMM LegendMM   99.96     LegendNANA
20:00 1.1 -3.8 70 0.0 LegendMM LegendMM   99.94     LegendNANA
21:00 1.0 -3.4 72 0.0 LegendMM LegendMM   99.84     LegendNANA
22:00 1.2 -3.1 73 0.0 LegendMM LegendMM   99.82     LegendNANA
23:00 1.1 -2.9 74 0.0 LegendMM LegendMM   99.77     LegendNANA

Notes on Data Quality.

Legend

  • E = Estimated
  • M = Missing
  • NA = Not Available*
  • [empty] = Indicates an unobserved value
Date modified: